カタログに戻る

CZ-6A DEB

運用中PO
NORAD 61831·DEBRIS·🇨🇳 China

打ち上げ Aug 6, 2024 から Taiyuan Satellite Launch Center

Loading…

次のパス (今後24時間)

TLE

最新Source: Space-Track

元期: Sep 14, 2026, 10:27 UTC

1 61831U 24140ACX 26257.43586622  .00001211  00000-0  62156-3 0  9996
2 61831  88.9829 264.6353 0086220 299.4309  59.8292 14.12944695102540

AllMySatでCZ-6A DEBをリアルタイム追跡

Download on the App Store